FW1409 Weather Reports


Display with metric or nautical units.
time (UTC)temp
F
wind
direction
speed
MPH
gust
MPH
rain 1hr
in
rain 24hr
in
rain mn
in
humidity
%
barometer
mb
20260506090049 54 137 0.0 2.0 0.00 0.00 0.00 96 1010.9
20260506084559 54 79 0.0 3.0 0.00 0.00 0.00 96 1010.9
20260506083041 54 118 0.0 2.0 0.00 0.00 0.00 95 1011.0
20260506081541 55 85 0.0 2.0 0.00 0.00 0.00 95 1011.2
20260506073035 55 160 0.0 3.0 0.00 0.00 0.00 94 1011.4
20260506071534 55 114 1.0 3.0 0.00 0.00 0.00 94 1011.5
20260506061544 56 94 0.0 2.0 0.00 0.00 0.00 91 1011.3
20260506044517 60 148 0.0 3.0 0.00 0.00 0.00 86 1011.9
20260506043015 60 240 0.0 5.0 0.00 0.00 0.00 84 1011.8
20260506041507 61 165 1.0 4.0 0.00 0.00 0.00 83 1011.8
20260506040008 61 157 2.0 7.0 0.00 0.00 0.00 82 1011.8
20260506034503 61 245 1.0 6.0 0.00 0.00 0.00 82 1011.9
20260506033004 61 263 2.0 6.0 0.00 0.00 0.00 81 1011.7
20260506031503 61 205 1.0 10.0 0.00 0.00 0.00 81 1011.6
20260506030001 61 241 1.0 5.0 0.00 0.00 0.00 80 1011.5
20260506024602 61 231 2.0 6.0 0.00 0.00 0.00 79 1011.7
20260506023103 62 211 0.0 6.0 0.00 0.00 0.00 78 1011.6
20260506021606 62 226 2.0 9.0 0.00 0.00 0.00 77 1011.7
20260506020059 63 274 2.0 9.0 0.00 0.00 0.00 76 1011.4
20260506014558 62 204 2.0 6.0 0.00 0.00 0.00 77 1011.4
20260506013105 63 203 1.0 5.0 0.00 0.00 0.00 76 1011.1
20260506011606 63 323 1.0 4.0 0.00 0.00 0.00 75 1010.9
20260506010056 63 245 0.0 4.0 0.00 0.00 0.00 74 1010.6
20260506004555 64 262 1.0 7.0 0.00 0.00 0.00 73 1010.5
20260506003055 64 360 1.0 9.0 0.00 0.00 0.00 72 1010.3
20260506001555 65 281 1.0 14.0 0.00 0.00 0.00 71 1010.2
20260506000054 65 200 3.0 11.0 0.00 0.00 0.00 71 1010.1
20260505234603 65 218 5.0 11.0 0.00 0.00 0.00 70 1009.8
20260505233051 66 288 3.0 12.0 0.00 0.00 0.00 69 1009.7
20260505231605 66 240 3.0 13.0 0.00 0.00 0.00 68 1009.6
20260505230053 67 204 3.0 10.0 0.00 0.00 0.00 67 1009.4
20260505224549 67 295 3.0 11.0 0.00 0.00 0.00 67 1009.1
20260505223048 68 255 4.0 13.0 0.00 0.00 0.00 67 1009.3
20260505221553 68 281 6.0 12.0 0.00 0.00 0.00 67 1009.4
20260505220044 69 262 2.0 12.0 0.00 0.00 0.00 66 1009.3
20260505214603 70 303 4.0 11.0 0.00 0.00 0.00 65 1009.2
20260505213042 70 116 3.0 7.0 0.00 0.00 0.00 66 1009.2
20260505211541 70 77 2.0 10.0 0.00 0.00 0.00 67 1009.1
20260505210043 71 56 3.0 9.0 0.00 0.00 0.00 66 1008.9
20260505204540 70 92 3.0 13.0 0.00 0.00 0.00 66 1009.1
20260505203036 71 285 1.0 10.0 0.00 0.00 0.00 65 1009.0
20260505201535 71 258 3.0 11.0 0.00 0.00 0.00 64 1009.2
20260505200042 72 260 2.0 9.0 0.00 0.00 0.00 64 1009.3
20260505194533 72 236 3.0 14.0 0.00 0.00 0.00 64 1009.3
20260505193035 72 116 4.0 12.0 0.00 0.00 0.00 65 1009.4
20260505191529 73 120 2.0 13.0 0.00 0.00 0.00 64 1009.6
20260505190029 72 60 4.0 10.0 0.00 0.00 0.00 64 1009.9
20260505184529 73 84 3.0 10.0 0.00 0.00 0.00 63 1010.1
20260505183030 73 253 3.0 8.0 0.00 0.00 0.00 63 1010.1
20260505181525 74 264 3.0 11.0 0.00 0.00 0.00 62 1010.3
20260505180025 74 65 3.0 11.0 0.00 0.00 0.00 61 1010.1
20260505174523 75 117 4.0 11.0 0.00 0.00 0.00 60 1010.2
20260505173021 75 289 2.0 12.0 0.00 0.00 0.00 60 1010.5
20260505171520 74 68 5.0 12.0 0.00 0.00 0.00 60 1010.4
20260505170018 74 193 3.0 8.0 0.00 0.00 0.00 60 1010.4
20260505164516 74 134 3.0 13.0 0.00 0.00 0.00 62 1010.5
20260505163018 75 315 2.0 7.0 0.00 0.00 0.00 61 1010.6
20260505161513 73 174 4.0 12.0 0.00 0.00 0.00 60 1011.0
20260505153007 72 58 1.0 9.0 0.00 0.00 0.00 64 1011.3
20260505151504 71 257 5.0 12.0 0.00 0.00 0.00 64 1011.3
20260505140110 67 264 2.0 9.0 0.00 0.00 0.00 73 1011.5
20260505124537 60 129 0.0 5.0 0.00 0.00 0.00 83 1011.3
20260505123032 57 193 2.0 4.0 0.00 0.00 0.00 87 1011.7
20260505121536 56 41 0.0 2.0 0.00 0.00 0.00 89 1011.7
20260505120040 55 226 0.0 0.0 0.00 0.00 0.00 92 1011.6
20260505114523 54 226 0.0 1.0 0.00 0.00 0.00 93 1011.7
20260505113019 53 235 0.0 3.0 0.00 0.00 0.00 95 1011.9
20260505111520 51 233 0.0 2.0 0.00 0.00 0.00 97 1011.9
20260505101513 48 233 0.0 0.0 0.00 0.00 0.00 97 1011.1
20260505100013 48 233 0.0 0.0 0.00 0.00 0.00 97 1011.0
20260505094511 49 233 0.0 0.0 0.00 0.00 0.00 97 1010.9
20260505093010 49 233 0.0 0.0 0.00 0.00 0.00 96 1011.0
20260505091509 49 233 0.0 0.0 0.00 0.00 0.00 96 1011.0